[[{"header":{"parameterUnit":"m.s-1","parameterCategory":1,"la1":30.2991,"la2":30.254,"lo1":-89.0895,"lo2":-89.0444,"dy":0.0017,"dx":0.0017,"nx":28,"ny":28,"refTime":"2023-08-17T21:00:00:Z","depth":0,"parameterNumber":2,"parameterNumberName":"U-component_of_WINDS"},"data":[0,0,0,0,0,0,0,0,0,0,0,0,0,0,0,0,0,0,0,0,0,0,0,0,0,0,0,0,0,0,0,0,0,0,0,0,0,0,0,0,0,0,0,0,0,0,0,0,0,0,0,0,0,0,0,0,0,0,4.1291,4.1291,0,4.1293,4.1294,4.1294,4.1172,4.1168,4.1165,4.1162,4.1167,4.117,4.1173,0,0,0,0,0,0,0,0,0,0,0,0,0,4.1179,4.1182,4.1291,4.1291,4.1291,4.1293,4.1294,4.1294,4.1172,4.1168,4.1164,4.1161,4.1166,4.1169,4.1173,0,0,0,0,0,0,0,0,0,0,0,0,0,4.1209,4.1183,4.1291,4.123,4.1225,4.1293,4.1294,4.1294,4.1173,4.1168,4.1163,4.1159,4.1164,4.1169,4.1174,4.13,0,0,4.1188,4.119,0,0,0,0,0,0,0,0,4.1208,4.1214,4.1239,4.1235,4.1229,4.1227,4.1256,4.1296,4.1174,4.1193,4.1162,4.1156,4.1191,4.1193,4.1204,4.1301,4.1301,4.1189,4.1191,4.1193,4.1195,0,0,0,0,0,0,0,4.1206,4.1213,4.1292,4.124,4.1233,4.1203,4.1202,4.1263,4.1219,4.1191,4.1182,4.1184,4.1187,4.12,4.1204,4.1301,4.1188,4.1193,4.1196,4.1197,4.1496,4.1501,0,0,0,0,0,0,4.1212,4.1212,4.1292,4.1292,4.1206,4.1209,4.1208,4.1233,4.1218,4.1211,4.1188,4.1178,4.1194,4.1198,4.1203,4.1346,4.1193,4.1198,4.1201,4.1491,4.1497,4.1503,0,0,0,0,0,0,4.121,4.122,4.1291,4.1249,4.1256,4.1216,4.1245,4.1235,4.1248,4.1216,4.1208,4.1209,4.1191,4.1197,4.1276,4.1345,4.12,4.1204,4.1485,4.1493,4.15,4.1636,0,0,0,0,0,0,4.1207,4.122,4.1268,4.1251,4.1259,4.1365,4.1249,4.1239,4.1256,4.1243,4.1234,4.1228,4.1187,4.1269,4.1281,4.1349,4.1208,4.1479,4.1489,4.1498,4.1625,4.1648,4.1667,0,0,0,0,0,4.1204,4.1308,4.1271,4.1282,4.1318,4.1369,4.1373,4.1324,4.1263,4.131,4.1289,4.1228,4.1337,4.1279,4.129,4.1361,4.1474,4.1486,4.1497,4.1616,4.1643,4.1666,0,0,0,0,0,0,4.1336,4.1305,4.1264,4.1366,4.1371,4.1348,4.1406,4.1355,4.1378,4.1365,4.1305,4.1303,4.1391,4.1385,4.1321,4.148,4.1394,4.1409,4.1481,4.1506,4.1527,4.1525,4.1212,0,0,0,0,0,4.1377,4.142,4.1391,4.1484,4.1488,4.1448,4.1468,4.1429,4.1432,4.1434,4.1419,4.1424,4.1458,4.1483,4.1514,4.1625,4.1619,4.1679,4.17,4.1717,4.1729,4.1783,4.1808,4.1541,4.154,4.154,0,0,4.1462,4.145,4.1482,4.151,4.1509,4.1554,4.145,4.1504,4.1536,4.1442,4.1514,4.1504,4.1506,4.16,4.1641,4.1597,4.1802,4.1732,4.1746,4.1748,4.1797,4.1823,4.1845,4.1548,4.1547,4.1546,0,0,4.1638,4.1636,4.171,4.1711,4.171,4.1682,4.17,4.1685,4.1673,4.1745,4.1674,4.1713,4.1775,4.1778,4.1787,4.1963,4.1906,4.1975,4.2081,4.2135,4.2156,4.2174,4.2232,4.2254,4.1988,4.1988,4.1988,0,4.1744,4.1809,4.1756,4.1812,4.1825,4.1741,4.1815,4.1819,4.1829,4.1839,4.179,4.1864,4.186,4.1951,4.1994,4.2006,4.2023,4.1974,4.2157,4.2175,4.2191,4.2246,4.2268,4.1996,4.1995,4.1994,4.1994,0,4.1936,4.1983,4.2043,4.2052,4.2072,4.2138,4.2093,4.212,4.208,4.2057,4.2129,4.2121,4.2146,4.2166,4.2129,4.2252,4.2224,4.2168,4.2079,4.2225,4.2275,4.2296,4.2007,4.2005,4.2002,4.2,0,0,4.2196,4.2172,4.2195,4.2195,4.2188,4.2222,4.2284,4.2307,4.2329,4.234,4.2387,4.2441,4.2386,4.2398,4.236,4.2408,4.2541,4.2344,4.2343,4.2377,4.2671,4.2711,4.2736,4.2505,4.2509,4.2512,4.2669,0,4.2363,4.2463,4.2415,4.2521,4.2561,4.2481,4.2533,4.2534,4.2514,4.2545,4.2523,4.256,4.2489,4.2494,4.2538,4.2516,4.2599,4.2505,4.2546,4.2548,4.2543,4.2763,4.2805,4.2954,4.2689,4.2693,4.2695,0,4.2571,4.2586,4.2695,4.2676,4.2691,4.2739,4.2754,4.2786,4.2784,4.2766,4.2777,4.2728,4.2785,4.27,4.2776,4.2713,4.2728,4.272,4.2724,4.2722,4.2627,4.2763,4.3001,4.3021,4.2726,4.2724,4.2722,0,4.2742,4.2791,4.2861,4.2865,4.2847,4.2881,4.2875,4.2869,4.2884,4.2899,4.2908,4.293,4.2941,4.2959,4.2916,4.2859,4.2997,4.291,4.2981,4.2982,4.301,4.3008,4.3249,4.3028,4.3028,4.3028,4.3027,0,4.2931,4.3,4.2937,4.298,4.3053,4.2998,4.3073,4.3058,4.3053,4.3091,4.3026,4.3063,4.3006,4.3037,4.3005,4.307,4.3078,4.3063,4.3052,4.3066,4.3067,4.3071,4.3058,4.3033,4.3032,4.3031,4.303,0,4.3134,4.3095,4.3165,4.314,4.3136,4.3191,4.3169,4.3207,4.3183,4.3231,4.3239,4.32,4.3233,4.3193,4.3225,4.3202,4.329,4.3267,4.3289,4.3281,4.3353,4.3345,4.3601,4.363,4.3395,4.3398,4.34,0,4.3255,4.3305,4.3285,4.3304,4.3301,4.3335,4.3349,4.3297,4.3315,4.3316,4.3353,4.3381,4.3399,4.3456,4.343,4.3452,4.3426,4.3515,4.3429,4.344,4.3422,4.3417,4.342,4.3531,4.3534,4.3536,4.3538,0,4.3471,4.3449,4.3472,4.3488,4.3507,4.3517,4.3523,4.3544,4.3489,4.3513,4.3544,4.3559,4.3588,4.3615,4.363,4.3623,4.3571,4.3566,4.3582,4.3594,4.3603,4.3594,4.3332,4.3559,4.3557,4.3555,4.3554,4.3553,4.3633,4.3672,4.3662,4.3689,4.3688,4.3694,4.3727,4.3705,4.373,4.3748,4.3717,4.3756,4.3751,4.3765,4.3765,4.3794,4.3756,4.3782,4.3788,4.3793,4.3802,4.3602,4.3798,4.3797,4.3797,4.3796,4.3796,0,4.3841,4.3831,4.3856,4.3864,4.3886,4.3834,4.3837,4.3858,4.3893,4.3892,4.3911,4.3946,4.3971,4.3948,4.3968,4.3996,4.3972,4.4003,4.3998,4.3996,4.3837,4.3818,4.4021,4.4021,4.4021,4.4021,4.4021,4.4021,4.3952,4.4013,4.399,4.4049,4.4038,4.4074,4.408,4.4084,4.4083,4.4124,4.4144,4.4128,4.4117,4.4136,4.4157,4.4149,4.4157,4.4196,4.4179,4.403,4.4008,4.3987,4.3968,4.4199,4.4199,4.4335,4.4336,4.4337]},{"header":{"parameterUnit":"m.s-1","parameterCategory":1,"la1":30.2991,"la2":30.254,"lo1":-89.0895,"lo2":-89.0444,"dy":0.0017,"dx":0.0017,"nx":28,"ny":28,"refTime":"2023-08-17T21:00:00:Z","depth":0,"parameterNumber":3,"parameterNumberName":"V-component_of_WINDS"},"data":[0,0,0,0,0,0,0,0,0,0,0,0,0,0,0,0,0,0,0,0,0,0,0,0,0,0,0,0,0,0,0,0,0,0,0,0,0,0,0,0,0,0,0,0,0,0,0,0,0,0,0,0,0,0,0,0,0,0,4.1046,4.1048,0,4.1164,4.1165,4.1166,4.116,4.1158,4.1157,4.1155,4.1269,4.1273,4.1278,0,0,0,0,0,0,0,0,0,0,0,0,0,4.081,4.0814,4.1046,4.1048,4.1049,4.1163,4.1165,4.1167,4.116,4.1158,4.1156,4.1154,4.1267,4.1273,4.1278,0,0,0,0,0,0,0,0,0,0,0,0,0,4.0918,4.0815,4.1046,4.106,4.1063,4.1163,4.1165,4.1167,4.1161,4.1158,4.1156,4.1153,4.1266,4.1272,4.1279,4.1371,0,0,4.13,4.1303,0,0,0,0,0,0,0,0,4.0912,4.0927,4.1057,4.1059,4.1062,4.1145,4.1123,4.1235,4.1161,4.1123,4.1155,4.1152,4.1229,4.1239,4.1266,4.1377,4.1381,4.1301,4.1305,4.1308,4.131,0,0,0,0,0,0,0,4.0904,4.0922,4.1093,4.1058,4.1062,4.1058,4.1071,4.1144,4.1188,4.1126,4.1126,4.1141,4.123,4.1259,4.1269,4.1383,4.13,4.1306,4.1311,4.1313,4.1571,4.1574,0,0,0,0,0,0,4.0895,4.0915,4.1089,4.1096,4.098,4.1064,4.1078,4.1121,4.1188,4.1196,4.1143,4.114,4.1249,4.1261,4.1273,4.1383,4.1308,4.1314,4.1318,4.1569,4.1572,4.1575,0,0,0,0,0,0,4.089,4.091,4.1084,4.1006,4.1028,4.1071,4.1119,4.1124,4.1154,4.12,4.1207,4.1165,4.1247,4.1263,4.1346,4.1386,4.1317,4.1323,4.1565,4.157,4.1573,4.1605,0,0,0,0,0,0,4.0883,4.0909,4.0946,4.1007,4.1032,4.1158,4.1121,4.1128,4.1166,4.1164,4.1223,4.123,4.1247,4.1336,4.1353,4.1395,4.1329,4.1562,4.1567,4.1572,4.16,4.1609,4.1617,0,0,0,0,0,4.0875,4.095,4.0948,4.0969,4.108,4.1161,4.1175,4.1194,4.117,4.1206,4.1235,4.1228,4.138,4.1345,4.1364,4.1408,4.1559,4.1566,4.1572,4.1596,4.1608,4.1617,0,0,0,0,0,0,4.0891,4.0958,4.0957,4.1054,4.1102,4.116,4.1206,4.1206,4.126,4.1255,4.1275,4.1288,4.1371,4.1398,4.1358,4.1499,4.1466,4.1476,4.1478,4.1489,4.1498,4.1488,4.1334,0,0,0,0,0,4.0906,4.0968,4.1023,4.1103,4.1127,4.1163,4.1199,4.1209,4.1259,4.1278,4.1314,4.136,4.1418,4.1455,4.1511,4.1605,4.1615,4.1644,4.1653,4.1659,4.1667,4.1715,4.1728,4.1595,4.1595,4.1595,0,0,4.0937,4.0982,4.102,4.1107,4.1146,4.1207,4.118,4.1246,4.1291,4.1288,4.1369,4.1396,4.1449,4.1537,4.1577,4.1562,4.1706,4.1667,4.1672,4.1676,4.1723,4.1735,4.1746,4.1599,4.1599,4.1598,0,0,4.1025,4.1067,4.1137,4.1176,4.1235,4.1258,4.1274,4.1332,4.1351,4.1433,4.1431,4.1483,4.1583,4.1619,4.1651,4.1751,4.1745,4.1769,4.1812,4.1859,4.1869,4.1878,4.1911,4.1923,4.1777,4.1777,4.1777,0,4.1056,4.1151,4.1173,4.124,4.1277,4.1278,4.1347,4.1384,4.1457,4.1481,4.1463,4.1587,4.1623,4.1718,4.1742,4.1769,4.1786,4.1761,4.1867,4.1876,4.1885,4.1916,4.1929,4.1779,4.1779,4.1779,4.1779,0,4.1184,4.125,4.1299,4.1371,4.1414,4.1482,4.1511,4.1551,4.1558,4.1581,4.1663,4.1706,4.1769,4.1793,4.18,4.1888,4.1876,4.1863,4.1829,4.1899,4.1929,4.1941,4.1783,4.1782,4.1781,4.1781,0,0,4.1286,4.1368,4.1386,4.1417,4.1481,4.1531,4.1597,4.1661,4.1693,4.1744,4.1797,4.1881,4.1868,4.1904,4.1915,4.1956,4.2029,4.1937,4.1938,4.195,4.2125,4.2133,4.2147,4.2026,4.2029,4.2031,4.212,0,4.1378,4.1498,4.1519,4.1622,4.1681,4.1682,4.174,4.1784,4.1807,4.1858,4.1884,4.1942,4.1922,4.1943,4.1984,4.2012,4.2064,4.2006,4.2073,4.2075,4.2058,4.2163,4.2173,4.2255,4.2132,4.2134,4.2135,0,4.1502,4.1556,4.1666,4.172,4.1746,4.1797,4.1855,4.1906,4.1954,4.1968,4.2008,4.2013,4.2079,4.2044,4.2133,4.2093,4.2122,4.2139,4.2143,4.2148,4.2108,4.2168,4.2282,4.2293,4.2154,4.2153,4.2151,0,4.1561,4.1662,4.174,4.1767,4.1833,4.1868,4.1897,4.1943,4.1979,4.203,4.2053,4.211,4.214,4.2183,4.2202,4.2176,4.2289,4.2256,4.2299,4.2299,4.2321,4.2319,4.2438,4.2344,4.2344,4.2344,4.2344,0,4.1661,4.1727,4.1767,4.1814,4.1888,4.191,4.1981,4.2008,4.2049,4.21,4.2105,4.2152,4.2176,4.2226,4.2241,4.2311,4.2325,4.2336,4.2338,4.2334,4.2332,4.2351,4.2345,4.2347,4.2346,4.2346,4.2345,0,4.1738,4.1768,4.1853,4.1908,4.1924,4.1975,4.2021,4.2066,4.2089,4.2153,4.2169,4.2205,4.2263,4.2288,4.236,4.237,4.2448,4.2448,4.2432,4.2433,4.2473,4.2468,4.2606,4.2624,4.2521,4.2522,4.2523,0,4.1799,4.185,4.1911,4.1946,4.1976,4.2033,4.207,4.2093,4.213,4.2189,4.2225,4.2285,4.2333,4.2426,4.2457,4.2511,4.251,4.2555,4.2518,4.2511,4.2507,4.2503,4.2507,4.2561,4.2562,4.2563,4.2564,0,4.1902,4.1914,4.1968,4.2027,4.2071,4.2118,4.2164,4.2191,4.2221,4.2262,4.2323,4.2361,4.2434,4.2492,4.2547,4.2574,4.2572,4.2575,4.2587,4.2582,4.257,4.2574,4.2448,4.2571,4.2571,4.257,4.257,4.2569,4.1971,4.2015,4.2065,4.2124,4.2161,4.2203,4.2247,4.2276,4.2328,4.2391,4.2401,4.2465,4.2509,4.2584,4.2613,4.2661,4.265,4.2668,4.2672,4.2676,4.2677,4.2564,4.2672,4.2672,4.2672,4.2671,4.2671,0,4.2071,4.2103,4.2158,4.2222,4.2268,4.2265,4.2315,4.2353,4.241,4.2453,4.25,4.2568,4.2624,4.2659,4.2714,4.2746,4.2746,4.2759,4.2755,4.2761,4.2686,4.2669,4.2757,4.2757,4.2757,4.2757,4.2757,4.2757,4.2129,4.2203,4.2221,4.2312,4.2343,4.2407,4.2435,4.2473,4.2507,4.2584,4.263,4.2654,4.2692,4.275,4.2799,4.2808,4.2826,4.284,4.2847,4.2776,4.2767,4.2758,4.2742,4.2844,4.2845,4.2918,4.2918,4.2919]}]]